FW6511 Weather Reports


time (UTC)temp
F
wind
direction
speed
knots
gust
knots
rain 1hr
in
rain 24hr
in
rain mn
in
humidity
%
barometer
mb
20260506073038 45 14 1.7 5.2 0.00 0.00 0.00 69 1017.3
20260506072103 45 352 1.7 3.5 0.00 0.00 0.00 69 1017.3
20260506071038 44 13 1.7 4.3 0.00 0.00 0.00 69 1017.3
20260506062123 41 10 1.7 3.5 0.00 0.00 0.00 74 1017.2
20260506061039 41 350 0.9 2.6 0.00 0.00 0.00 75 1017.2
20260506060142 40 0 0.9 2.6 0.00 0.00 0.00 75 1017.2
20260506051118 38 0 0.0 1.7 0.00 0.00 0.00 77 1017.3
20260506045039 37 0.0 0.0 0.00 0.00 0.00 76 1017.2
20260506044103 37 30 0.0 1.7 0.00 0.00 0.00 76 1017.2
20260506043038 37 315 0.0 1.7 0.00 0.00 0.00 75 1017.2
20260506042223 37 15 0.0 1.7 0.00 0.00 0.00 75 1017.2
20260506041059 37 0.0 0.9 0.00 0.00 0.00 75 1017.1
20260506040122 37 0 0.0 1.7 0.00 0.00 0.00 74 1017.2
20260506035139 37 225 0.0 1.7 0.00 0.00 0.00 74 1017.2
20260506034102 38 225 0.0 1.7 0.00 0.00 0.00 74 1017.2
20260506033038 38 225 0.0 1.7 0.00 0.00 0.00 73 1017.3
20260506032103 38 225 0.0 1.7 0.00 0.00 0.00 73 1017.3
20260506031039 38 0.0 0.9 0.00 0.00 0.00 73 1017.4
20260506025059 39 0 0.0 1.7 0.00 0.00 0.00 72 1017.4
20260506024243 39 351 0.0 1.7 0.00 0.00 0.00 72 1017.4
20260506023038 39 10 0.9 1.7 0.00 0.00 0.00 72 1017.4
20260506021039 40 334 0.0 1.7 0.00 0.00 0.00 71 1017.5
20260506020223 40 0 0.0 1.7 0.00 0.00 0.00 71 1017.6
20260506015039 40 0.0 1.7 0.00 0.00 0.00 71 1017.6
20260506014102 40 0 0.0 0.9 0.00 0.00 0.00 70 1017.7
20260506013139 40 353 0.0 0.9 0.00 0.00 0.00 70 1017.7
20260506012123 40 0 0.0 0.9 0.00 0.00 0.00 70 1017.7
20260506010122 41 338 0.0 1.7 0.00 0.00 0.00 69 1017.9
20260506005039 41 0.0 1.7 0.00 0.00 0.00 69 1018.0
20260506004103 42 0 0.9 1.7 0.00 0.00 0.00 69 1018.0
20260506003058 42 355 0.9 1.7 0.00 0.00 0.00 69 1017.9
20260506002103 42 0 0.0 1.7 0.00 0.00 0.00 69 1017.9
20260506001039 42 354 0.0 1.7 0.00 0.00 0.00 69 1017.9
20260505235039 42 0 0.0 1.7 0.00 0.00 0.00 70 1018.0
20260505234103 42 11 0.0 1.7 0.00 0.00 0.00 70 1018.0
20260505233139 43 0 0.0 1.7 0.00 0.00 0.00 69 1018.0
20260505232143 43 5 0.0 1.7 0.00 0.00 0.00 69 1018.1
20260505231038 43 5 0.9 1.7 0.00 0.00 0.00 69 1018.1
20260505230202 43 358 0.9 1.7 0.00 0.00 0.00 69 1018.1
20260505225119 43 359 0.9 2.6 0.00 0.00 0.00 69 1018.1
20260505224103 43 12 0.9 2.6 0.00 0.00 0.00 69 1018.1
20260505223059 43 16 0.9 2.6 0.00 0.00 0.00 69 1018.1
20260505222103 43 8 0.9 1.7 0.00 0.00 0.00 69 1018.3
20260505221039 43 7 0.9 1.7 0.00 0.00 0.00 69 1018.3
20260505220223 43 16 0.9 2.6 0.00 0.00 0.00 68 1018.3
20260505215039 43 43 0.9 3.5 0.00 0.00 0.00 68 1018.2
20260505214103 43 31 1.7 4.3 0.00 0.00 0.00 68 1018.2
20260505213039 43 26 0.9 1.7 0.00 0.00 0.00 68 1018.2
20260505212103 43 16 1.7 2.6 0.00 0.00 0.00 67 1018.2
20260505211039 44 23 1.7 4.3 0.00 0.00 0.00 67 1018.2
20260505210202 44 13 1.7 2.6 0.00 0.00 0.00 67 1018.2
20260505205039 44 19 1.7 2.6 0.00 0.00 0.00 67 1018.2
20260505204123 44 37 1.7 3.5 0.00 0.00 0.00 66 1018.2
20260505203058 44 20 1.7 3.5 0.00 0.00 0.00 66 1018.2
20260505202123 44 27 1.7 4.3 0.00 0.00 0.00 65 1018.2
20260505201039 44 27 2.6 5.2 0.00 0.00 0.00 64 1018.1
20260505200123 45 40 2.6 4.3 0.00 0.00 0.00 64 1018.1
20260505195159 45 38 1.7 4.3 0.00 0.00 0.00 64 1018.1
20260505194123 45 37 3.5 6.1 0.00 0.00 0.00 64 1018.1
20260505193039 45 41 3.5 6.1 0.00 0.00 0.00 64 1017.9
20260505192203 45 10 3.5 6.1 0.00 0.00 0.00 61 1017.9
20260505191059 46 26 3.5 7.0 0.00 0.00 0.00 60 1017.9
20260505190142 46 25 4.3 7.0 0.00 0.00 0.00 59 1017.7
20260505185039 46 35 3.5 7.0 0.00 0.00 0.00 60 1017.8
20260505184103 46 8 3.5 7.0 0.00 0.00 0.00 60 1017.8
20260505183118 46 23 3.5 7.0 0.00 0.00 0.00 59 1017.7
20260505182123 46 36 4.3 7.0 0.00 0.00 0.00 60 1017.7
20260505181139 47 20 4.3 8.7 0.00 0.00 0.00 60 1017.8
20260505180123 47 34 4.3 7.0 0.00 0.00 0.00 60 1017.8
20260505175119 47 31 4.3 9.6 0.00 0.00 0.00 60 1017.8
20260505174103 47 24 3.5 7.0 0.00 0.00 0.00 60 1017.8
20260505173059 47 20 4.3 8.7 0.00 0.00 0.00 60 1017.7
20260505172103 47 24 3.5 7.0 0.00 0.00 0.00 60 1017.7
20260505171119 47 23 5.2 9.6 0.00 0.00 0.00 60 1017.7
20260505170103 48 1 3.5 7.0 0.00 0.00 0.00 60 1017.7
20260505165039 48 33 4.3 10.4 0.00 0.00 0.00 60 1017.7
20260505164103 48 26 3.5 7.0 0.00 0.00 0.00 60 1017.6
20260505163039 48 21 4.3 7.8 0.00 0.00 0.00 60 1017.6
20260505162103 47 16 4.3 7.8 0.00 0.00 0.00 60 1017.6
20260505161039 47 17 3.5 6.1 0.00 0.00 0.00 60 1017.6
20260505160143 47 22 4.3 7.0 0.00 0.00 0.00 61 1017.6
20260505153059 47 31 4.3 8.7 0.00 0.00 0.00 64 1017.5
20260505152123 47 11 3.5 7.8 0.00 0.00 0.00 64 1017.5
20260505151119 48 357 5.2 9.6 0.00 0.00 0.00 63 1017.5
20260505150203 48 29 4.3 7.8 0.00 0.00 0.00 63 1017.4
20260505130223 49 24 5.2 8.7 0.00 0.00 0.00 65 1016.9
20260505125039 49 41 4.3 7.8 0.00 0.00 0.00 66 1016.8
20260505124103 49 39 5.2 12.2 0.00 0.00 0.00 65 1016.8
20260505123039 50 34 6.1 11.3 0.00 0.00 0.00 65 1016.8
20260505122103 50 30 5.2 9.6 0.00 0.00 0.00 65 1016.7
20260505121039 50 29 6.1 12.2 0.00 0.00 0.00 65 1016.7
20260505120103 50 13 6.1 12.2 0.00 0.00 0.00 66 1016.7
20260505115059 50 20 7.0 13.9 0.00 0.00 0.00 66 1016.7
20260505114103 49 35 5.2 8.7 0.00 0.00 0.00 68 1016.6
20260505113140 49 33 7.0 11.3 0.00 0.00 0.00 69 1016.5
20260505112103 49 8 7.0 13.0 0.00 0.00 0.00 70 1016.4
20260505111039 49 9 6.1 9.6 0.00 0.00 0.00 70 1016.4
20260505102103 54 14 7.8 14.8 0.00 0.00 0.00 56 1015.7
20260505101039 53 14 5.2 11.3 0.00 0.00 0.00 54 1015.7
20260505100124 52 52 5.2 10.4 0.00 0.00 0.00 55 1015.6
20260505095119 51 31 3.5 8.7 0.00 0.00 0.00 56 1015.7
20260505094224 51 45 4.3 10.4 0.00 0.00 0.00 56 1015.7
20260505093100 51 31 4.3 8.7 0.00 0.00 0.00 57 1015.6
20260505092123 51 29 5.2 11.3 0.00 0.00 0.00 58 1015.6
20260505091140 51 24 5.2 9.6 0.00 0.00 0.00 59 1015.5
20260505090123 51 16 6.1 10.4 0.00 0.00 0.00 58 1015.5
20260505085200 51 19 4.3 9.6 0.00 0.00 0.00 58 1015.4
20260505084103 51 38 5.2 9.6 0.00 0.00 0.00 59 1015.3
20260505082103 50 16 4.3 10.4 0.00 0.00 0.00 59 1015.2
20260505081039 50 13 4.3 9.6 0.00 0.00 0.00 60 1015.1
20260505080103 50 45 3.5 7.0 0.00 0.00 0.00 62 1015.1
20260505075119 50 33 3.5 7.0 0.00 0.00 0.00 62 1014.9
20260505074104 49 336 3.5 7.0 0.00 0.00 0.00 62 1014.8
20260505073200 49 1 3.5 7.0 0.00 0.00 0.00 63 1014.7